Home   Weather   Windsor   Past weeks

Flag for Canada Past Weather in Windsor, Ontario, Canada — Yesterday and Last 2 Weeks

Now
39 °F

Fog.


Feels Like: 36 °F
Forecast: 40 / 53 °F
Wind: 5 mph from East

Location: Windsor Weather Station

Current Time: Jan 21, 2017 at 3:52:17 am

Latest Report: Jan 21, 2017 at 3:00 am


Visibility: 0 mi

Pressure: 29.77 "Hg

Humidity: 100%

Dew Point: 39 °F

Location of WindsorLocation

Past Weather in Windsor — Graph

°F

Windsor Temperature Yesterday

Maximum temperature yesterday: 41 °F (at 4:42 pm)
Minimum temperature yesterday: 32 °F (at 12:00 am)
Average temperature yesterday: 36 °F

High & Low Weather Summary for the Past Weeks

 TemperatureHumidityPressure
High54 °F (Jan 12, 2:00 am)100% (Jan 10, 1:34 am)30.80 "Hg (Jan 10, 1:34 am)
Low3 °F (Jan 6, 8:00 am)53% (Jan 8, 1:00 pm)29.45 "Hg (Jan 10, 8:00 pm)
Average29 °F86%30.13 "Hg
* Reported Jan 6 2:00 am — Jan 21 2:00 am, Windsor, Weather by CustomWeather, © 2017

Note: Actual official high and low records may vary slightly from our data, if they occured in-between our weather recording intervals... More about our weather records

Advertising

Windsor Weather History for the Previous 24 Hours

Scroll right to see more
 ConditionsComfort  
Time TempWeatherWind HumidityBarometerVisibility
2:00 am
Sat, Jan 21
39 °FFog.2 mph100%29.77 "Hg0 mi
1:00 am39 °FFog.No wind100%29.75 "Hg0 mi
12:00 am39 °FFog.5 mph100%29.77 "Hg0 mi
11:09 pm
Fri, Jan 20
39 °FFog.5 mph100%29.76 "Hg0 mi
11:00 pm39 °FDrizzle. Fog.6 mph100%29.77 "Hg0 mi
10:51 pm39 °FDrizzle. Fog.7 mph100%29.77 "Hg1 mi
10:21 pm39 °FDrizzle. Fog.7 mph100%29.77 "Hg2 mi
10:00 pm39 °FFog.7 mph100%29.76 "Hg3 mi
9:47 pm39 °FLight rain. Fog.6 mph100%29.76 "Hg4 mi
9:00 pm39 °FLight rain. Fog.7 mph100%29.76 "Hg3 mi
8:00 pm39 °FLight rain. Fog.8 mph100%29.76 "Hg3 mi
7:45 pm39 °FLight rain. Fog.7 mph100%29.75 "Hg3 mi
7:00 pm39 °FRain. Low clouds.6 mph100%29.75 "Hg2 mi
6:00 pm39 °FFog.6 mph100%29.72 "Hg2 mi
5:32 pm39 °FFog.3 mph100%29.71 "Hg2 mi
5:00 pm39 °FFog.7 mph100%29.70 "Hg4 mi
4:53 pm41 °FFog.6 mph100%29.70 "Hg4 mi
4:42 pm41 °FFog.5 mph100%29.70 "Hg3 mi
4:07 pm39 °FFog.7 mph100%29.69 "Hg1 mi
3:00 pm37 °FFog.2 mph100%29.67 "Hg1 mi
2:44 pm37 °FFog.2 mph100%29.67 "Hg1 mi
2:19 pm37 °FDrizzle. Dense fog.3 mph100%29.66 "Hg1 mi
1:00 pm37 °FDrizzle. Low clouds.6 mph100%29.66 "Hg1 mi
12:00 pm36 °FDrizzle. Low clouds.6 mph100%29.67 "Hg1 mi
11:35 am36 °FDrizzle. Low clouds.7 mph100%29.68 "Hg1 mi
11:00 am36 °FDrizzle. Low clouds.8 mph100%29.69 "Hg1 mi
10:25 am36 °FDrizzle. Low clouds.10 mph100%29.68 "Hg1 mi
10:00 am36 °FDrizzle. Fog.12 mph100%29.68 "Hg1 mi
9:41 am36 °FDrizzle. Fog.12 mph100%29.68 "Hg2 mi
9:14 am36 °FLight rain. Fog.9 mph100%29.70 "Hg2 mi
9:00 am36 °FLight rain. Fog.7 mph100%29.70 "Hg1 mi
8:00 am34 °FLight rain. Fog.9 mph100%29.69 "Hg1 mi
7:42 am34 °FLight rain. Fog.12 mph100%29.68 "Hg2 mi
7:00 am34 °FLight rain. Fog.12 mph100%29.70 "Hg2 mi
6:31 am32 °FLight rain. Ice fog.10 mph100%29.71 "Hg2 mi
6:00 am32 °FFog.10 mph100%29.73 "Hg1 mi
5:48 am32 °FFog.8 mph100%29.74 "Hg1 mi
5:00 am32 °FFog.9 mph100%29.77 "Hg0 mi
4:00 am32 °FIce fog.6 mph100%29.80 "Hg1 mi
3:39 am32 °FIce fog.9 mph100%29.80 "Hg1 mi
3:11 am32 °FDrizzle. Fog.8 mph100%29.82 "Hg0 mi
3:00 am32 °FFog.7 mph100%29.83 "Hg0 mi
Weather by CustomWeather, © 2017

See weather overviewHow to use our weather pages